This is the latest recevied weather packets stored in our database for station/object KC8JWT. If no packets are shown the sender has not sent any weather packets the latest 10 day(s).
| Time | Temp. | Humidity | Pressure | Rain* | Wind** | Luminosity | Snow |
|---|---|---|---|---|---|---|---|
| 1777772462 | 5° C | 80% | 1017.8 hPa | 0 mm | - | 0 W/m² | - |
| 1777772159 | 5.56° C | 79% | 1017.4 hPa | 0 mm | - | 0 W/m² | - |
| 1777771856 | 5.56° C | 79% | 1017.4 hPa | 0 mm | - | 0 W/m² | - |
| 1777771554 | 5.56° C | 78% | 1017.7 hPa | 0 mm | - | 0 W/m² | - |
| 1777771250 | 6.11° C | 77% | 1017.4 hPa | 0 mm | - | 0 W/m² | - |
| 1777770946 | 6.11° C | 77% | 1017.3 hPa | 0 mm | - | 0 W/m² | - |
| 1777770644 | 6.11° C | 76% | 1017.4 hPa | 0 mm | - | 0 W/m² | - |
| 1777770340 | 6.67° C | 75% | 1017.3 hPa | 0 mm | - | 0 W/m² | - |
| 1777770038 | 6.67° C | 75% | 1017.2 hPa | 0 mm | - | 0 W/m² | - |
| 1777769735 | 6.67° C | 74% | 1017.3 hPa | 0 mm | - | 0 W/m² | - |
| 1777769432 | 6.67° C | 74% | 1017.2 hPa | 0 mm | - | 0 W/m² | - |
| 1777769128 | 6.67° C | 75% | 1017.1 hPa | 0 mm | - | 0 W/m² | - |
| 1777768826 | 6.67° C | 74% | 1017.3 hPa | 0 mm | - | 0 W/m² | - |
| 1777768523 | 6.67° C | 73% | 1017.4 hPa | 0 mm | - | 0 W/m² | - |
| 1777768220 | 6.67° C | 73% | 1017.3 hPa | 0 mm | - | 0 W/m² | - |
| 1777767917 | 7.22° C | 72% | 1017 hPa | 0 mm | - | 0 W/m² | - |
| 1777767614 | 7.22° C | 71% | 1017 hPa | 0 mm | - | 2 W/m² | - |
| 1777767310 | 7.78° C | 70% | 1017 hPa | 0 mm | - | 3 W/m² | - |
| 1777767008 | 7.78° C | 70% | 1016.8 hPa | 0 mm | - | 6 W/m² | - |
| 1777766705 | 7.78° C | 69% | 1016.9 hPa | 0 mm | - | 9 W/m² | - |
| 1777766402 | 8.33° C | 69% | 1016.6 hPa | 0 mm | - | 14 W/m² | - |
| 1777766098 | 8.33° C | 68% | 1016.9 hPa | 0 mm | - | 19 W/m² | - |
| 1777765796 | 8.33° C | 68% | 1016.8 hPa | 0 mm | - | 24 W/m² | - |
| 1777765492 | 8.89° C | 67% | 1016.6 hPa | 0 mm | - | 28 W/m² | - |
| 1777765190 | 8.89° C | 68% | 1016.6 hPa | 0 mm | - | 34 W/m² | - |
* Rain latest hour (hover to see other rain measurements)
** Current wind speed in m/s (hover to see current wind gust speed)